Location: Newark
(49.2191°N, 12.6671°E)
Time: 06:19:42
(UTC+00:00)

Transit 4A - Pass Details

Date: 24 January 2020
Orbit: 872 x 973 km, 66.8° (Epoch: 19 February)

Event Time Altitude Azimuth Distance (km) Brightness Sun altitude
Rises 05:55:01 0° 203° (SSW) 3,546 10.9 -9.2°
Reaches altitude 10° 05:57:34 10° 200° (SSW) 2,593 10.2 -8.8°
Maximum altitude 06:03:29 65° 120° (ESE) 984 8.4 -7.9°
Drops below altitude 10° 06:09:19 10° 40° (NE) 2,550 10.5 -7.0°
Sets 06:11:48 0° 38° (NE) 3,484 11.1 -6.6°
